Location: Góry Miechowskie
(50.3599°N, 20.1803°E)
Time: 13:38:00
(UTC+00:00)

Cosmos 2228 - Pass Details

Date: 15 June 2024
Orbit: 576 x 604 km, 82.5° (Epoch: 15 July)

Event Time Altitude Azimuth Distance (km) Brightness Sun altitude
Rises 00:08:35 0° 352° (N) 2,873 7.6 -13.7°
Reaches altitude 10° 00:10:51 10° 356° (N) 1,963 6.7 -13.6°
Maximum altitude 00:15:09 62° 77° (ENE) 681 3.4 -13.4°
Enters shadow 00:19:16 11° 159° (SSE) 1,880 5.1 -13.1°
